星链-33965 (STARLINK-33965)

导读

STARLINK-33965是美国SpaceX公司星链(Starlink)星座的一颗低轨通信卫星,于2025年7月8日发射入轨。 星链是全球规模最大的低轨卫星互联网星座,主打全球高速互联网接入服务,覆盖个人、海事、航空等多类场景,目前已服务全球数十个国家数百万用户。该卫星将助力星链进一步扩容星座网络容量,提升覆盖范围与服务稳定性,延续星链在低轨卫星互联网领域的领先优势。

基本信息
目录编号:
64755
目录名称:
STARLINK-33965
国际标识:
2025-147A
轨道中心:
EARTH
卫星名称:
星链-33965
卫星全名:
星链-33965 (STARLINK-33965)
卫星状态:
在轨 (已飞行423 天)
发射日期:
2025-07-08 UTC
国别 :
美国 (US)
星等 :
--
轨道信息
数据来源 国际轨道数据 AOE轨道数据
星历时间 2026-09-03T11:16:10+0800
1天前
查看轨道信息
2026-08-30T18:00:00+0800
4天前
查看轨道信息
半长轴 6840.813km 6840.815km
偏心率 0.0001396 0.0001841
轨道倾角 53.157° 53.157°
近地点辐角 77.669° 56.678°
升交点赤经 134.706° 152.096°
平近点角 282.447° 265.901°
近地点 461.721km 461.418km
远地点 463.631km 463.938km
周期 93.847分钟 93.847分钟
每日圈数 15.344092 15.344086
详细信息
固有亮度:
5
最大亮度:
2.5
卫星平台:
Starlink V1.0
覆盖范围:
全球
运营商:
太空探索技术公司
运营商所在国:
美国
制造商(研发单位):
太空探索技术公司
制造商所在国:
美国
使用方式:
暂无
卫星简介
Starlink 计划是 SpaceX 推出的全球卫星互联网项目,通过发射低轨道卫星,为全球尤其是偏远地区提供高速、低延迟的互联网服务。自 2019 年起,Starlink 已部署数千颗卫星,旨在缩小全球数字鸿沟,推动互联网普及。该项目还为军事、航空等行业提供通信支持,带来广泛经济效益。
2D轨道图
3D轨道图
轨道高度分析图
轨道倾角分析图
轨道综合分析图
查看轨道综合分析图
交会数据列表
事件ID 空间交会对象 最接近时刻(TCA) 交会距离 交会风险概率(CRP) 交会风险指数(CRI) 操作
CDM_260903-130800-874406-475523
2026-09-03T
13:08:34+0000
0.612 km
远距离
1.115265E-4 高风险 0.76
CDM_260905-050005-111206-475521
2026-09-05T
05:00:07+0000
0.808 km
远距离
3.348102E-5 中风险 0.65
CDM_260905-063305-111206-475521
2026-09-05T
06:33:55+0000
2.081 km
极远距离
1.660771E-6 低风险 0.39
CDM_260903-171605-479806-475521
2026-09-03T
17:16:54+0000
2.870 km
极远距离
1.261685E-6 低风险 0.37